Calgary Springbank,

10:43 PM MST on November 22, 2017 (GMT -0700)
Calgary Springbank

Weather History for CYBW - December, 2013

Change the Weather History Date:

Saturday, December 7, 2013

  Actual Average Record
Temperature  
Mean Temperature -14 °F -  
Max Temperature 3 °F 27 °F 46 °F (2015)
Min Temperature -31 °F 8 °F -31 °F (2013)
Degree Days  
Heating Degree Days 79    
Moisture  
Dew Point -22 °F    
Average Humidity 64    
Maximum Humidity 70    
Minimum Humidity 46    
Precipitation  
Precipitation 0.00 in - - ()
Sea Level Pressure  
Sea Level Pressure 30.38 in    
Wind  
Wind Speed 6 mph ()    
Max Wind Speed 9 mph    
Max Gust Speed -    
Visibility 15.0 miles    
Events Snow    
Averages and records for this station are not official NWS values.
T = Trace of Precipitation, MM = Missing Value Source: Averaged Metar Reports

Daily Weather History Graph

Daily Weather History Graph

Search for Another Location

Airport or City:

Trip Planner

Search our weather history database for the weather conditions in past years. The results will help you decide how hot, cold, wet, or windy it might be!

Date:

Astronomy

Dec. 07, 2013 Rise Set
Actual Time 8:27 AM MST 4:30 PM MST
Civil Twilight 7:47 AM MST 5:10 PM MST
Nautical Twilight 7:05 AM MST 5:52 PM MST
Astronomical Twilight 6:25 AM MST 6:32 PM MST
Moon 11:50 AM MST (12/7) 10:45 PM MST (12/7)
Length of Visible Light 9h 22m
Length of Day
8h 03m
Waxing Crescent, 30% of the Moon is Illuminated
Dec 7
Waxing Crescent
Dec 9
First Quarter
Dec 17
Full
Dec 25
Last Quarter
Jan 1
New

Hourly Weather History & Observations

Time (MST) Temp. Windchill Dew Point Humidity Pressure Visibility Wind Dir Wind Speed Gust Speed Precip Events Conditions
5:00 AM -30 °F - -36 °F 57% 30.59 in 15 mi NW 5.8 mph - -   Clear
5:00 AM -29.2 °F -48.1 °F -36.4 °F 68% 30.59 in 15.0 mi NW 6.9 mph - N/A   Clear
6:00 AM -27.4 °F -45.9 °F -34.6 °F 69% 30.57 in 15.0 mi NW 6.9 mph - N/A   Clear
7:00 AM -29.2 °F -48.1 °F -36.4 °F 68% 30.57 in 15.0 mi NW 6.9 mph - N/A   Clear
8:00 AM -27.4 °F -45.9 °F -34.6 °F 69% 30.53 in 30.0 mi WNW 6.9 mph - N/A   Clear
9:00 AM -27.4 °F -44.1 °F -34.6 °F 69% 30.52 in 15.0 mi WNW 5.8 mph - N/A   Clear
10:00 AM -23.8 °F -37.7 °F -31.0 °F 69% 30.51 in 30.0 mi WNW 4.6 mph - N/A   Clear
11:00 AM -20 °F - -27 °F 56% 30.49 in 28 mi NW 5.8 mph - -   Clear
11:00 AM -20.2 °F -37.3 °F -27.4 °F 69% 30.48 in 30.0 mi NW 6.9 mph - N/A   Clear
12:00 PM -13.0 °F -28.6 °F -20.2 °F 70% 30.43 in 30.0 mi NW 6.9 mph - N/A   Clear
1:00 PM -7.6 °F -20.6 °F -16.6 °F 65% 30.38 in 30.0 mi WNW 5.8 mph - N/A   Clear
2:00 PM -4.0 °F -14.6 °F -14.8 °F 60% 30.34 in 30.0 mi WNW 4.6 mph - N/A   Partly Cloudy
3:00 PM -5.8 °F -21.2 °F -16.6 °F 60% 30.33 in 30.0 mi NW 8.1 mph - N/A   Scattered Clouds
4:00 PM -5.8 °F -18.4 °F -16.6 °F 60% 30.32 in 30.0 mi WNW 5.8 mph - N/A   Mostly Cloudy
5:00 PM -7 °F - -17 °F 46% 30.31 in 28 mi NW 5.8 mph - -   Clear
5:00 PM -5.8 °F -16.7 °F -16.6 °F 60% 30.31 in 30.0 mi WNW 4.6 mph - N/A   Mostly Cloudy
6:00 PM -4.0 °F -16.3 °F -13.0 °F 65% 30.28 in 15.0 mi NNW 5.8 mph - N/A   Overcast
7:00 PM -4.0 °F -17.8 °F -13.0 °F 65% 30.27 in 15.0 mi NW 6.9 mph - N/A   Overcast
8:00 PM -4.0 °F -19.0 °F -13.0 °F 65% 30.28 in 15.0 mi NW 8.1 mph - N/A   Overcast
9:00 PM 1.4 °F -13.5 °F -9.4 °F 61% 30.25 in 15.0 mi NNW 9.2 mph - N/A   Ice Crystals
9:50 PM 3.2 °F -11.3 °F -5.8 °F 66% 30.24 in 15.0 mi NNW 9.2 mph - N/A Snow Light Snow
10:00 PM 3.2 °F -11.3 °F -5.8 °F 66% 29.87 in 15.0 mi NNW 9.2 mph - N/A Snow Light Snow